Time,TemperatureF,DewpointF,PressureIn,WindDirection,WindDirectionDegrees,WindSpeedMPH,WindSpeedGustMPH,Humidity,HourlyPrecipIn,Conditions,Clouds,dailyrainin,SoftwareType,DateUTC
2013-06-06 00:01:00,71.3,-34.3,29.60,SE,135,2.0,9.0,1,0.03,,,0.00,Weather View 32 v70,2013-06-06 04:01:00,
2013-06-06 00:02:00,71.3,-34.3,29.60,SE,135,1.0,9.0,1,0.03,,,0.00,Weather View 32 v70,2013-06-06 04:02:00,
2013-06-06 00:07:00,71.3,-34.3,29.60,SE,135,1.0,9.0,1,0.02,,,0.00,Weather View 32 v70,2013-06-06 04:07:00,
2013-06-06 00:12:00,71.3,-34.3,29.59,SE,135,1.0,9.0,1,0.02,,,0.00,Weather View 32 v70,2013-06-06 04:12:00,
2013-06-06 00:17:00,71.2,-34.3,29.59,SE,135,4.0,9.0,1,0.02,,,0.00,Weather View 32 v70,2013-06-06 04:17:00,
2013-06-06 00:22:00,71.3,-34.3,29.59,SE,135,3.0,9.0,1,0.01,,,0.01,Weather View 32 v70,2013-06-06 04:22:00,
2013-06-06 00:27:00,71.3,-34.3,29.59,SE,135,2.0,9.0,1,0.02,,,0.01,Weather View 32 v70,2013-06-06 04:27:00,
2013-06-06 00:32:00,71.3,-34.3,29.59,SSE,157,3.0,9.0,1,0.02,,,0.01,Weather View 32 v70,2013-06-06 04:32:00,
2013-06-06 00:37:00,71.3,-34.3,29.59,SSE,157,2.0,9.0,1,0.02,,,0.01,Weather View 32 v70,2013-06-06 04:37:00,
2013-06-06 00:42:00,71.1,-34.4,29.59,SE,135,3.0,7.0,1,0.02,,,0.01,Weather View 32 v70,2013-06-06 04:42:00,
2013-06-06 00:47:00,71.2,-34.3,29.59,SE,135,2.0,7.0,1,0.01,,,0.01,Weather View 32 v70,2013-06-06 04:47:00,
2013-06-06 00:52:00,71.1,-34.4,29.59,ESE,112,3.0,6.0,1,0.01,,,0.01,Weather View 32 v70,2013-06-06 04:52:00,
2013-06-06 00:57:00,71.1,-34.4,29.58,SE,135,3.0,6.0,1,0.01,,,0.01,Weather View 32 v70,2013-06-06 04:57:00,
2013-06-06 01:02:00,71.1,-34.4,29.57,SE,135,4.0,8.0,1,0.01,,,0.01,Weather View 32 v70,2013-06-06 05:02:00,
2013-06-06 01:07:00,71.1,-34.4,29.57,ESE,112,7.0,12.0,1,0.01,,,0.01,Weather View 32 v70,2013-06-06 05:07:00,
2013-06-06 01:12:00,70.9,-34.5,29.57,ESE,112,6.0,12.0,1,0.01,,,0.01,Weather View 32 v70,2013-06-06 05:12:00,
2013-06-06 01:17:00,70.9,-34.5,29.57,SE,135,6.0,12.0,1,0.01,,,0.01,Weather View 32 v70,2013-06-06 05:17:00,
2013-06-06 01:22:00,70.9,-34.5,29.57,ESE,112,4.0,12.0,1,0.01,,,0.02,Weather View 32 v70,2013-06-06 05:22:00,
2013-06-06 01:27:00,70.8,-34.6,29.57,SE,135,4.0,12.0,1,0.01,,,0.02,Weather View 32 v70,2013-06-06 05:27:00,
2013-06-06 01:32:00,70.7,-34.6,29.56,ESE,112,3.0,12.0,1,0.01,,,0.02,Weather View 32 v70,2013-06-06 05:32:00,
2013-06-06 01:37:00,70.6,-34.7,29.56,ESE,112,4.0,12.0,1,0.01,,,0.02,Weather View 32 v70,2013-06-06 05:37:00,
2013-06-06 01:42:00,70.6,-34.7,29.56,East,90,4.0,12.0,1,0.01,,,0.02,Weather View 32 v70,2013-06-06 05:42:00,
2013-06-06 01:47:00,70.6,-34.7,29.56,ESE,112,4.0,12.0,1,0.01,,,0.02,Weather View 32 v70,2013-06-06 05:47:00,
2013-06-06 01:52:00,70.5,-34.8,29.55,SE,135,2.0,12.0,1,0.01,,,0.02,Weather View 32 v70,2013-06-06 05:52:00,
2013-06-06 01:57:00,70.5,-34.8,29.56,SE,135,6.0,12.0,1,0.01,,,0.02,Weather View 32 v70,2013-06-06 05:57:00,
2013-06-06 02:02:00,70.5,-34.8,29.55,ESE,112,4.0,12.0,1,0.01,,,0.02,Weather View 32 v70,2013-06-06 06:02:00,
2013-06-06 02:07:00,70.6,-34.7,29.55,SE,135,3.0,11.0,1,0.01,,,0.02,Weather View 32 v70,2013-06-06 06:07:00,
2013-06-06 02:12:00,70.5,-34.8,29.55,ESE,112,5.0,11.0,1,0.01,,,0.02,Weather View 32 v70,2013-06-06 06:12:00,
2013-06-06 02:17:00,70.5,-34.8,29.55,SE,135,5.0,11.0,1,0.01,,,0.02,Weather View 32 v70,2013-06-06 06:17:00,
2013-06-06 02:22:00,70.6,-34.7,29.54,SE,135,3.0,11.0,1,0.00,,,0.02,Weather View 32 v70,2013-06-06 06:22:00,
2013-06-06 02:27:00,70.5,-34.8,29.54,SE,135,3.0,11.0,1,0.00,,,0.02,Weather View 32 v70,2013-06-06 06:27:00,
2013-06-06 02:32:00,70.5,-34.8,29.55,SE,135,2.0,11.0,1,0.00,,,0.02,Weather View 32 v70,2013-06-06 06:32:00,
2013-06-06 02:42:00,70.6,-34.7,29.55,ESE,112,2.0,11.0,1,0.00,,,0.02,Weather View 32 v70,2013-06-06 06:42:00,
2013-06-06 02:47:00,70.5,-34.8,29.55,SE,135,4.0,11.0,1,0.00,,,0.02,Weather View 32 v70,2013-06-06 06:47:00,
2013-06-06 02:52:00,70.5,-34.8,29.55,ESE,112,6.0,11.0,1,0.00,,,0.02,Weather View 32 v70,2013-06-06 06:52:00,
2013-06-06 02:57:00,70.5,-34.8,29.55,SE,135,2.0,11.0,1,0.00,,,0.02,Weather View 32 v70,2013-06-06 06:57:00,
2013-06-06 03:02:00,70.4,-34.8,29.55,SSE,157,4.0,11.0,1,0.00,,,0.02,Weather View 32 v70,2013-06-06 07:02:00,
2013-06-06 03:07:00,70.5,-34.8,29.55,SE,135,5.0,11.0,1,0.00,,,0.02,Weather View 32 v70,2013-06-06 07:07:00,
2013-06-06 03:12:00,70.6,-34.7,29.55,SSE,157,2.0,9.0,1,0.00,,,0.02,Weather View 32 v70,2013-06-06 07:12:00,
2013-06-06 03:17:00,70.5,-34.8,29.55,South,180,2.0,9.0,1,0.00,,,0.02,Weather View 32 v70,2013-06-06 07:17:00,
2013-06-06 03:22:00,70.5,-34.8,29.54,SE,135,2.0,9.0,1,0.00,,,0.02,Weather View 32 v70,2013-06-06 07:22:00,
2013-06-06 03:27:00,70.5,-34.8,29.54,SE,135,2.0,7.0,1,0.00,,,0.02,Weather View 32 v70,2013-06-06 07:27:00,
2013-06-06 03:32:00,70.4,-34.8,29.54,SE,135,1.0,7.0,1,0.00,,,0.02,Weather View 32 v70,2013-06-06 07:32:00,
2013-06-06 03:38:00,70.5,-34.8,29.54,SE,135,1.0,6.0,1,0.00,,,0.02,Weather View 32 v70,2013-06-06 07:38:00,
2013-06-06 03:43:00,70.5,-34.8,29.54,SE,135,2.0,6.0,1,0.00,,,0.02,Weather View 32 v70,2013-06-06 07:43:00,
2013-06-06 03:48:00,70.4,-34.8,29.54,SSE,157,3.0,6.0,1,0.00,,,0.02,Weather View 32 v70,2013-06-06 07:48:00,
2013-06-06 03:53:00,70.3,-34.9,29.54,SSE,157,2.0,6.0,1,0.00,,,0.02,Weather View 32 v70,2013-06-06 07:53:00,
2013-06-06 03:58:00,70.3,-34.9,29.53,SSE,157,1.0,6.0,1,0.00,,,0.02,Weather View 32 v70,2013-06-06 07:58:00,
2013-06-06 04:03:00,70.4,-34.8,29.53,SSE,157,0.0,6.0,1,0.00,,,0.02,Weather View 32 v70,2013-06-06 08:03:00,
2013-06-06 04:08:00,70.4,-34.8,29.53,SSE,157,1.0,5.0,1,0.00,,,0.02,Weather View 32 v70,2013-06-06 08:08:00,
2013-06-06 04:13:00,70.4,-34.8,29.53,SSE,157,2.0,4.0,1,0.00,,,0.02,Weather View 32 v70,2013-06-06 08:13:00,
2013-06-06 04:18:00,70.3,-34.9,29.53,SSE,157,2.0,4.0,1,0.00,,,0.02,Weather View 32 v70,2013-06-06 08:18:00,
2013-06-06 04:23:00,70.3,-34.9,29.53,SSE,157,1.0,4.0,1,0.00,,,0.02,Weather View 32 v70,2013-06-06 08:23:00,
2013-06-06 04:28:00,70.4,-34.8,29.53,SE,135,1.0,4.0,1,0.00,,,0.02,Weather View 32 v70,2013-06-06 08:28:00,
2013-06-06 04:33:00,70.3,-34.9,29.53,SE,135,3.0,4.0,1,0.00,,,0.02,Weather View 32 v70,2013-06-06 08:33:00,
2013-06-06 04:38:00,70.4,-34.8,29.53,ESE,112,2.0,4.0,1,0.00,,,0.02,Weather View 32 v70,2013-06-06 08:38:00,
2013-06-06 04:43:00,70.3,-34.9,29.53,ESE,112,2.0,4.0,1,0.00,,,0.02,Weather View 32 v70,2013-06-06 08:43:00,
2013-06-06 04:48:00,70.4,-34.8,29.53,SE,135,2.0,4.0,1,0.00,,,0.02,Weather View 32 v70,2013-06-06 08:48:00,
2013-06-06 04:53:00,70.4,-34.8,29.53,SE,135,2.0,4.0,1,0.00,,,0.02,Weather View 32 v70,2013-06-06 08:53:00,
2013-06-06 04:58:00,70.3,-34.9,29.53,ESE,112,2.0,4.0,1,0.00,,,0.02,Weather View 32 v70,2013-06-06 08:58:00,
2013-06-06 05:03:00,70.3,-34.9,29.53,SE,135,2.0,4.0,1,0.00,,,0.02,Weather View 32 v70,2013-06-06 09:03:00,
2013-06-06 05:08:00,70.3,-34.9,29.53,SE,135,2.0,4.0,1,0.00,,,0.02,Weather View 32 v70,2013-06-06 09:08:00,
2013-06-06 05:13:00,70.3,-34.9,29.53,SE,135,2.0,4.0,1,0.00,,,0.02,Weather View 32 v70,2013-06-06 09:13:00,
2013-06-06 05:18:00,70.3,-34.9,29.53,SE,135,1.0,4.0,1,0.00,,,0.02,Weather View 32 v70,2013-06-06 09:18:00,
2013-06-06 05:23:00,70.3,-34.9,29.52,ESE,112,4.0,5.0,1,0.00,,,0.02,Weather View 32 v70,2013-06-06 09:23:00,
2013-06-06 05:28:00,70.3,-34.9,29.52,ESE,112,4.0,5.0,1,0.00,,,0.02,Weather View 32 v70,2013-06-06 09:28:00,
2013-06-06 05:33:00,70.2,-34.9,29.52,SE,135,4.0,6.0,1,0.00,,,0.02,Weather View 32 v70,2013-06-06 09:33:00,
2013-06-06 05:38:00,70.2,-34.9,29.52,SE,135,3.0,6.0,1,0.00,,,0.02,Weather View 32 v70,2013-06-06 09:38:00,
2013-06-06 05:43:00,70.3,-34.9,29.52,SE,135,4.0,6.0,1,0.00,,,0.02,Weather View 32 v70,2013-06-06 09:43:00,
2013-06-06 05:48:00,70.3,-34.9,29.52,SE,135,2.0,6.0,1,0.00,,,0.02,Weather View 32 v70,2013-06-06 09:48:00,
2013-06-06 05:53:00,70.4,-34.8,29.52,SE,135,3.0,6.0,1,0.00,,,0.02,Weather View 32 v70,2013-06-06 09:53:00,
2013-06-06 05:58:00,70.4,-34.8,29.52,SE,135,4.0,7.0,1,0.00,,,0.02,Weather View 32 v70,2013-06-06 09:58:00,
2013-06-06 06:03:00,70.4,-34.8,29.52,SSE,157,4.0,7.0,1,0.00,,,0.02,Weather View 32 v70,2013-06-06 10:03:00,
2013-06-06 06:08:00,70.4,-34.8,29.52,SE,135,2.0,7.0,1,0.00,,,0.02,Weather View 32 v70,2013-06-06 10:08:00,
2013-06-06 06:14:00,70.4,-34.8,29.52,SE,135,2.0,7.0,1,0.00,,,0.02,Weather View 32 v70,2013-06-06 10:14:00,
2013-06-06 06:19:00,70.3,-34.9,29.52,SSE,157,5.0,7.0,1,99.99,,,99.99,Weather View 32 v70,2013-06-06 10:19:00,
2013-06-06 06:24:00,70.3,-34.9,29.52,South,180,4.0,7.0,1,99.99,,,99.99,Weather View 32 v70,2013-06-06 10:24:00,
2013-06-06 06:29:00,70.2,-34.9,29.52,South,180,2.0,7.0,1,99.99,,,99.99,Weather View 32 v70,2013-06-06 10:29:00,
2013-06-06 06:34:00,70.3,-34.9,29.51,SSE,157,4.0,7.0,1,99.99,,,99.99,Weather View 32 v70,2013-06-06 10:34:00,
2013-06-06 06:39:00,70.3,-34.9,29.51,SSE,157,4.0,7.0,1,99.99,,,99.99,Weather View 32 v70,2013-06-06 10:39:00,
2013-06-06 06:44:00,70.3,-34.9,29.52,SSW,202,3.0,7.0,1,99.99,,,99.99,Weather View 32 v70,2013-06-06 10:44:00,
2013-06-06 06:49:00,70.3,-34.9,29.52,South,180,2.0,7.0,1,99.99,,,99.99,Weather View 32 v70,2013-06-06 10:49:00,
2013-06-06 06:54:00,70.3,-34.9,29.52,South,180,3.0,7.0,1,99.99,,,99.99,Weather View 32 v70,2013-06-06 10:54:00,
2013-06-06 07:14:00,70.4,-34.8,29.52,South,180,6.0,7.0,1,99.99,,,99.99,Weather View 32 v70,2013-06-06 11:14:00,
2013-06-06 07:19:00,70.5,-34.8,29.52,South,180,2.0,7.0,1,0.00,,,99.99,Weather View 32 v70,2013-06-06 11:19:00,
2013-06-06 07:24:00,70.6,-34.7,29.52,South,180,1.0,7.0,1,0.00,,,99.99,Weather View 32 v70,2013-06-06 11:24:00,
2013-06-06 07:29:00,70.7,-34.6,29.52,South,180,4.0,8.0,1,0.00,,,99.99,Weather View 32 v70,2013-06-06 11:29:00,
2013-06-06 07:34:00,70.8,-34.6,29.52,SSW,202,4.0,8.0,1,0.00,,,99.99,Weather View 32 v70,2013-06-06 11:34:00,
2013-06-06 07:39:00,70.9,-34.5,29.52,SSW,202,4.0,8.0,1,0.00,,,99.99,Weather View 32 v70,2013-06-06 11:39:00,
2013-06-06 07:44:00,70.9,-34.5,29.52,WSW,247,3.0,8.0,1,0.00,,,99.99,Weather View 32 v70,2013-06-06 11:44:00,
2013-06-06 07:49:00,70.9,-34.5,29.52,SSW,202,2.0,8.0,1,0.00,,,99.99,Weather View 32 v70,2013-06-06 11:49:00,
2013-06-06 07:54:00,71.1,-34.4,29.52,South,180,2.0,8.0,1,0.00,,,99.99,Weather View 32 v70,2013-06-06 11:54:00,
2013-06-06 07:59:00,71.3,-34.3,29.52,South,180,2.0,8.0,1,0.00,,,99.99,Weather View 32 v70,2013-06-06 11:59:00,
2013-06-06 08:04:00,71.4,-34.2,29.52,SW,225,2.0,8.0,1,0.00,,,99.99,Weather View 32 v70,2013-06-06 12:04:00,
2013-06-06 08:09:00,71.7,-34.0,29.52,SW,225,3.0,8.0,1,0.00,,,99.99,Weather View 32 v70,2013-06-06 12:09:00,
2013-06-06 08:14:00,71.6,-34.1,29.52,SW,225,2.0,8.0,1,0.00,,,99.99,Weather View 32 v70,2013-06-06 12:14:00,
2013-06-06 08:19:00,71.7,-34.0,29.52,SW,225,6.0,8.0,1,0.00,,,99.99,Weather View 32 v70,2013-06-06 12:19:00,
2013-06-06 08:24:00,71.8,-34.0,29.52,SW,225,6.0,8.0,1,0.00,,,99.99,Weather View 32 v70,2013-06-06 12:24:00,
2013-06-06 08:29:00,72.0,-33.9,29.52,SSW,202,3.0,7.0,1,0.00,,,99.99,Weather View 32 v70,2013-06-06 12:29:00,
2013-06-06 08:34:00,72.2,-33.7,29.53,SSW,202,4.0,7.0,1,0.00,,,99.99,Weather View 32 v70,2013-06-06 12:34:00,
2013-06-06 08:39:00,72.1,-33.8,29.53,SW,225,2.0,7.0,1,0.00,,,99.99,Weather View 32 v70,2013-06-06 12:39:00,
2013-06-06 08:44:00,72.2,-33.7,29.53,WSW,247,5.0,7.0,1,0.00,,,99.99,Weather View 32 v70,2013-06-06 12:44:00,
2013-06-06 08:50:00,72.3,-33.7,29.53,WSW,247,2.0,7.0,1,0.00,,,99.99,Weather View 32 v70,2013-06-06 12:50:00,
2013-06-06 08:55:00,72.0,-33.9,29.53,South,180,4.0,8.0,1,0.00,,,99.99,Weather View 32 v70,2013-06-06 12:55:00,
2013-06-06 09:00:00,72.6,-33.5,29.53,WSW,247,5.0,8.0,1,0.00,,,99.99,Weather View 32 v70,2013-06-06 13:00:00,
2013-06-06 09:05:00,72.7,-33.4,29.53,SSW,202,4.0,8.0,1,0.00,,,99.99,Weather View 32 v70,2013-06-06 13:05:00,
2013-06-06 09:10:00,72.8,-33.4,29.53,WSW,247,6.0,9.0,1,0.00,,,99.99,Weather View 32 v70,2013-06-06 13:10:00,
2013-06-06 09:15:00,73.0,-33.3,29.53,SW,225,2.0,9.0,1,0.00,,,99.99,Weather View 32 v70,2013-06-06 13:15:00,
2013-06-06 09:20:00,73.1,-33.2,29.53,WSW,247,4.0,9.0,1,0.00,,,99.99,Weather View 32 v70,2013-06-06 13:20:00,
2013-06-06 09:25:00,73.4,-33.0,29.53,WSW,247,4.0,9.0,1,0.00,,,99.99,Weather View 32 v70,2013-06-06 13:25:00,
2013-06-06 09:30:00,73.5,-33.0,29.53,WSW,247,4.0,9.0,1,0.00,,,99.99,Weather View 32 v70,2013-06-06 13:30:00,
2013-06-06 09:35:00,73.7,-32.8,29.53,SW,225,3.0,9.0,1,0.00,,,99.99,Weather View 32 v70,2013-06-06 13:35:00,
2013-06-06 09:40:00,73.9,-32.7,29.53,West,270,3.0,9.0,1,0.00,,,99.99,Weather View 32 v70,2013-06-06 13:40:00,
2013-06-06 09:45:00,74.0,-32.7,29.53,SSW,202,6.0,9.0,1,0.00,,,99.99,Weather View 32 v70,2013-06-06 13:45:00,
2013-06-06 09:50:00,74.3,-32.5,29.53,SW,225,4.0,9.0,1,0.00,,,99.99,Weather View 32 v70,2013-06-06 13:50:00,
2013-06-06 09:55:00,74.4,-32.4,29.53,WSW,247,5.0,9.0,1,0.00,,,99.99,Weather View 32 v70,2013-06-06 13:55:00,
2013-06-06 10:00:00,74.6,-32.3,29.53,SW,225,4.0,9.0,1,0.00,,,99.99,Weather View 32 v70,2013-06-06 14:00:00,
2013-06-06 10:05:00,74.6,-32.3,29.53,SSW,202,3.0,9.0,1,0.00,,,99.99,Weather View 32 v70,2013-06-06 14:05:00,
2013-06-06 10:10:00,74.6,-32.3,29.53,SW,225,2.0,8.0,1,0.00,,,99.99,Weather View 32 v70,2013-06-06 14:10:00,
2013-06-06 10:15:00,74.9,-32.1,29.53,SW,225,2.0,8.0,1,0.00,,,99.99,Weather View 32 v70,2013-06-06 14:15:00,
2013-06-06 10:20:00,75.3,-31.9,29.53,WSW,247,2.0,8.0,1,0.00,,,99.99,Weather View 32 v70,2013-06-06 14:20:00,
2013-06-06 10:45:00,76.4,-31.2,29.54,West,270,4.0,9.0,1,0.00,,,99.99,Weather View 32 v70,2013-06-06 14:45:00,
2013-06-06 10:50:00,76.7,-31.0,29.55,WSW,247,6.0,9.0,1,0.00,,,99.99,Weather View 32 v70,2013-06-06 14:50:00,
2013-06-06 10:55:00,76.2,-18.4,29.55,SW,225,6.0,10.0,2,0.00,,,99.99,Weather View 32 v70,2013-06-06 14:55:00,
2013-06-06 11:00:00,76.5,-31.2,29.55,SW,225,7.0,10.0,1,0.00,,,99.99,Weather View 32 v70,2013-06-06 15:00:00,
2013-06-06 11:05:00,76.7,-10.0,29.55,SW,225,4.0,10.0,3,0.00,,,99.99,Weather View 32 v70,2013-06-06 15:05:00,
2013-06-06 11:10:00,76.8,-18.0,29.55,SW,225,8.0,10.0,2,0.00,,,99.99,Weather View 32 v70,2013-06-06 15:10:00,
2013-06-06 11:15:00,76.8,4.6,29.55,West,270,7.0,10.0,6,0.00,,,99.99,Weather View 32 v70,2013-06-06 15:15:00,
2013-06-06 11:20:00,76.8,13.6,29.55,SSW,202,8.0,10.0,9,0.00,,,99.99,Weather View 32 v70,2013-06-06 15:20:00,
2013-06-06 11:25:00,77.1,24.1,29.55,South,180,3.0,10.0,14,0.00,,,99.99,Weather View 32 v70,2013-06-06 15:25:00,
2013-06-06 11:30:00,77.5,35.6,29.55,SW,225,7.0,11.0,22,0.00,,,99.99,Weather View 32 v70,2013-06-06 15:30:00,
2013-06-06 11:36:00,77.8,42.0,29.55,SSW,202,4.0,11.0,28,0.00,,,99.99,Weather View 32 v70,2013-06-06 15:36:00,
2013-06-06 11:41:00,77.8,45.5,29.55,SW,225,4.0,11.0,32,0.00,,,99.99,Weather View 32 v70,2013-06-06 15:41:00,
2013-06-06 11:46:00,78.1,45.8,29.55,SW,225,6.0,11.0,32,0.00,,,99.99,Weather View 32 v70,2013-06-06 15:46:00,
2013-06-06 11:51:00,78.2,50.4,29.55,WSW,247,7.0,11.0,38,0.00,,,99.99,Weather View 32 v70,2013-06-06 15:51:00,
2013-06-06 11:56:00,78.6,50.8,29.55,SW,225,4.0,11.0,38,0.00,,,99.99,Weather View 32 v70,2013-06-06 15:56:00,
2013-06-06 12:01:00,78.7,54.9,29.55,SW,225,2.0,11.0,44,0.00,,,99.99,Weather View 32 v70,2013-06-06 16:01:00,
2013-06-06 12:06:00,79.4,57.3,29.55,SW,225,2.0,11.0,47,0.00,,,99.99,Weather View 32 v70,2013-06-06 16:06:00,
2013-06-06 12:11:00,79.0,60.3,29.55,SW,225,5.0,11.0,53,0.00,,,99.99,Weather View 32 v70,2013-06-06 16:11:00,
2013-06-06 12:16:00,79.5,57.4,29.54,SSW,202,2.0,11.0,47,0.00,,,99.99,Weather View 32 v70,2013-06-06 16:16:00,
2013-06-06 12:21:00,79.6,58.1,29.54,SSW,202,4.0,11.0,48,0.00,,,99.99,Weather View 32 v70,2013-06-06 16:21:00,
2013-06-06 12:27:00,79.9,57.2,29.54,WSW,247,2.0,11.0,46,0.00,,,99.99,Weather View 32 v70,2013-06-06 16:27:00,
2013-06-06 12:32:00,79.9,61.7,29.54,South,180,4.0,11.0,54,0.00,,,99.99,Weather View 32 v70,2013-06-06 16:32:00,
2013-06-06 12:37:00,80.3,63.1,29.53,SW,225,6.0,11.0,56,0.00,,,99.99,Weather View 32 v70,2013-06-06 16:37:00,
2013-06-06 12:42:00,80.2,63.0,29.53,SW,225,4.0,10.0,56,0.00,,,99.99,Weather View 32 v70,2013-06-06 16:42:00,
2013-06-06 12:47:00,80.1,65.4,29.53,SSW,202,7.0,10.0,61,0.00,,,99.99,Weather View 32 v70,2013-06-06 16:47:00,
2013-06-06 12:52:00,79.8,65.1,29.53,South,180,6.0,10.0,61,0.00,,,99.99,Weather View 32 v70,2013-06-06 16:52:00,
2013-06-06 12:57:00,80.6,61.8,29.53,SW,225,2.0,10.0,53,0.00,,,99.99,Weather View 32 v70,2013-06-06 16:57:00,
2013-06-06 13:02:00,79.7,61.5,29.53,SE,135,4.0,10.0,54,0.00,,,99.99,Weather View 32 v70,2013-06-06 17:02:00,
2013-06-06 13:07:00,79.7,59.3,29.53,SW,225,4.0,10.0,50,0.00,,,99.99,Weather View 32 v70,2013-06-06 17:07:00,
2013-06-06 13:12:00,79.7,59.9,29.53,SSW,202,4.0,10.0,51,0.00,,,99.99,Weather View 32 v70,2013-06-06 17:12:00,
2013-06-06 13:17:00,79.7,58.8,29.52,South,180,4.0,10.0,49,0.00,,,99.99,Weather View 32 v70,2013-06-06 17:17:00,
2013-06-06 13:22:00,79.6,58.1,29.52,SSE,157,3.0,10.0,48,0.00,,,99.99,Weather View 32 v70,2013-06-06 17:22:00,
2013-06-06 13:27:00,79.3,57.8,29.52,South,180,4.0,10.0,48,0.00,,,99.99,Weather View 32 v70,2013-06-06 17:27:00,
2013-06-06 13:32:00,79.6,58.7,29.52,SSW,202,3.0,10.0,49,0.00,,,99.99,Weather View 32 v70,2013-06-06 17:32:00,
2013-06-06 13:37:00,79.7,54.5,29.51,WSW,247,2.0,10.0,42,0.00,,,99.99,Weather View 32 v70,2013-06-06 17:37:00,
2013-06-06 13:42:00,80.0,57.3,29.51,SW,225,2.0,10.0,46,0.00,,,99.99,Weather View 32 v70,2013-06-06 17:42:00,
2013-06-06 13:47:00,79.9,58.4,29.51,SW,225,4.0,10.0,48,0.00,,,99.99,Weather View 32 v70,2013-06-06 17:47:00,
2013-06-06 13:52:00,79.2,57.7,29.51,SSW,202,6.0,10.0,48,0.00,,,99.99,Weather View 32 v70,2013-06-06 17:52:00,
2013-06-06 13:57:00,79.2,55.3,29.51,SSW,202,4.0,10.0,44,0.00,,,99.99,Weather View 32 v70,2013-06-06 17:57:00,
2013-06-06 14:02:00,79.1,52.6,29.51,South,180,5.0,10.0,40,0.00,,,99.99,Weather View 32 v70,2013-06-06 18:02:00,
2013-06-06 14:07:00,76.9,39.3,29.52,SE,135,7.0,12.0,26,0.00,,,99.99,Weather View 32 v70,2013-06-06 18:07:00,
2013-06-06 14:12:00,75.3,19.1,29.51,SE,135,4.0,14.0,12,0.00,,,99.99,Weather View 32 v70,2013-06-06 18:12:00,
2013-06-06 14:18:00,74.8,-32.2,29.51,SE,135,5.0,14.0,1,-99.99,,,99.99,Weather View 32 v70,2013-06-06 18:18:00,
2013-06-06 14:23:00,74.6,-32.3,29.51,SSE,157,4.0,14.0,1,0.00,,,99.99,Weather View 32 v70,2013-06-06 18:23:00,
2013-06-06 14:28:00,74.6,-32.3,29.51,South,180,4.0,14.0,1,0.00,,,99.99,Weather View 32 v70,2013-06-06 18:28:00,
2013-06-06 14:33:00,73.9,-32.7,29.52,WSW,247,9.0,20.0,1,0.00,,,99.99,Weather View 32 v70,2013-06-06 18:33:00,
2013-06-06 14:38:00,72.9,-33.3,29.52,WNW,292,4.0,20.0,1,0.00,,,99.99,Weather View 32 v70,2013-06-06 18:38:00,
2013-06-06 14:43:00,72.3,-33.7,29.51,WNW,292,0.0,20.0,1,0.00,,,99.99,Weather View 32 v70,2013-06-06 18:43:00,
2013-06-06 14:48:00,72.1,-33.8,29.51,NW,315,0.0,20.0,1,0.00,,,99.99,Weather View 32 v70,2013-06-06 18:48:00,
2013-06-06 14:53:00,72.1,-33.8,29.51,NW,315,0.0,20.0,1,0.00,,,99.99,Weather View 32 v70,2013-06-06 18:53:00,
2013-06-06 14:58:00,72.4,-33.6,29.51,East,90,2.0,20.0,1,0.00,,,99.99,Weather View 32 v70,2013-06-06 18:58:00,
2013-06-06 15:03:00,72.8,-33.4,29.51,ENE,67,4.0,20.0,1,0.00,,,99.99,Weather View 32 v70,2013-06-06 19:03:00,
2013-06-06 15:08:00,73.1,-33.2,29.50,ENE,67,4.0,20.0,1,0.00,,,99.99,Weather View 32 v70,2013-06-06 19:08:00,
2013-06-06 15:13:00,73.2,-33.1,29.50,ENE,67,2.0,20.0,1,0.00,,,99.99,Weather View 32 v70,2013-06-06 19:13:00,
2013-06-06 15:18:00,73.4,-33.0,29.50,ENE,67,2.0,20.0,1,0.00,,,99.99,Weather View 32 v70,2013-06-06 19:18:00,
2013-06-06 15:23:00,73.3,-33.1,29.50,ESE,112,2.0,20.0,1,0.00,,,99.99,Weather View 32 v70,2013-06-06 19:23:00,
2013-06-06 15:28:00,73.3,-33.1,29.50,South,180,6.0,20.0,1,0.00,,,99.99,Weather View 32 v70,2013-06-06 19:28:00,
2013-06-06 15:33:00,72.8,-33.4,29.50,South,180,6.0,19.0,1,0.00,,,99.99,Weather View 32 v70,2013-06-06 19:33:00,
2013-06-06 15:34:00,72.9,-33.3,29.50,South,180,7.0,19.0,1,0.00,,,99.99,Weather View 32 v70,2013-06-06 19:34:00,
2013-06-06 15:39:00,71.9,-33.9,29.50,South,180,4.0,19.0,1,0.00,,,99.99,Weather View 32 v70,2013-06-06 19:39:00,
2013-06-06 15:44:00,71.6,-34.1,29.50,SSE,157,5.0,19.0,1,0.00,,,99.99,Weather View 32 v70,2013-06-06 19:44:00,
2013-06-06 15:49:00,71.5,-34.2,29.50,South,180,6.0,19.0,1,0.00,,,99.99,Weather View 32 v70,2013-06-06 19:49:00,
2013-06-06 15:54:00,71.3,-34.3,29.50,South,180,6.0,19.0,1,0.00,,,99.99,Weather View 32 v70,2013-06-06 19:54:00,
2013-06-06 15:59:00,71.4,-34.2,29.50,SSW,202,6.0,19.0,1,0.00,,,99.99,Weather View 32 v70,2013-06-06 19:59:00,
2013-06-06 16:04:00,71.3,-34.3,29.49,South,180,3.0,19.0,1,0.00,,,99.99,Weather View 32 v70,2013-06-06 20:04:00,
2013-06-06 16:09:00,71.4,-34.2,29.49,South,180,2.0,19.0,1,0.00,,,99.99,Weather View 32 v70,2013-06-06 20:09:00,
2013-06-06 16:14:00,71.5,-34.2,29.48,SSW,202,3.0,19.0,1,0.00,,,99.99,Weather View 32 v70,2013-06-06 20:14:00,
2013-06-06 16:19:00,71.6,-34.1,29.48,South,180,3.0,19.0,1,0.00,,,99.99,Weather View 32 v70,2013-06-06 20:19:00,
2013-06-06 16:24:00,71.6,-34.1,29.48,SSW,202,1.0,19.0,1,0.00,,,99.99,Weather View 32 v70,2013-06-06 20:24:00,
2013-06-06 16:29:00,71.9,-33.9,29.48,South,180,2.0,19.0,1,0.00,,,99.99,Weather View 32 v70,2013-06-06 20:29:00,
2013-06-06 16:34:00,71.9,-33.9,29.48,South,180,2.0,11.0,1,0.00,,,99.99,Weather View 32 v70,2013-06-06 20:34:00,
2013-06-06 16:39:00,72.4,-33.6,29.47,South,180,1.0,11.0,1,0.00,,,99.99,Weather View 32 v70,2013-06-06 20:39:00,
2013-06-06 16:44:00,72.3,-33.7,29.47,South,180,2.0,11.0,1,0.00,,,99.99,Weather View 32 v70,2013-06-06 20:44:00,
2013-06-06 16:49:00,72.4,-33.6,29.47,South,180,5.0,11.0,1,0.00,,,99.99,Weather View 32 v70,2013-06-06 20:49:00,
2013-06-06 16:54:00,72.4,-33.6,29.47,SE,135,4.0,9.0,1,0.00,,,99.99,Weather View 32 v70,2013-06-06 20:54:00,
2013-06-06 16:59:00,72.8,-33.4,29.47,South,180,2.0,9.0,1,0.00,,,99.99,Weather View 32 v70,2013-06-06 20:59:00,
2013-06-06 17:04:00,72.7,-33.4,29.47,SSE,157,3.0,8.0,1,0.00,,,99.99,Weather View 32 v70,2013-06-06 21:04:00,
2013-06-06 17:09:00,72.9,-33.3,29.46,SSE,157,6.0,8.0,1,-99.99,,,0.00,Weather View 32 v70,2013-06-06 21:09:00,
2013-06-06 17:16:00,72.9,-33.3,29.46,SSW,202,2.0,7.0,1,-99.99,,,0.00,Weather View 32 v70,2013-06-06 21:16:00,
2013-06-06 17:21:00,72.9,-33.3,29.46,South,180,4.0,7.0,1,-99.99,,,0.00,Weather View 32 v70,2013-06-06 21:21:00,
2013-06-06 17:26:00,72.9,-33.3,29.46,SSW,202,4.0,7.0,1,-99.99,,,0.00,Weather View 32 v70,2013-06-06 21:26:00,
2013-06-06 17:31:00,73.1,-33.2,29.46,South,180,4.0,7.0,1,-99.99,,,0.00,Weather View 32 v70,2013-06-06 21:31:00,
2013-06-06 17:36:00,73.0,-33.3,29.46,SE,135,3.0,7.0,1,-99.99,,,0.00,Weather View 32 v70,2013-06-06 21:36:00,
2013-06-06 17:41:00,73.1,-33.2,29.46,SE,135,4.0,7.0,1,-99.99,,,0.00,Weather View 32 v70,2013-06-06 21:41:00,
2013-06-06 17:46:00,72.9,-33.3,29.46,SE,135,1.0,7.0,1,-99.99,,,0.00,Weather View 32 v70,2013-06-06 21:46:00,
2013-06-06 17:51:00,72.7,-33.4,29.45,SE,135,2.0,6.0,1,-99.99,,,0.00,Weather View 32 v70,2013-06-06 21:51:00,
2013-06-06 17:56:00,72.9,-33.3,29.45,SE,135,1.0,6.0,1,-99.99,,,0.00,Weather View 32 v70,2013-06-06 21:56:00,
2013-06-06 18:01:00,72.8,-33.4,29.45,SE,135,2.0,6.0,1,-99.99,,,0.00,Weather View 32 v70,2013-06-06 22:01:00,
2013-06-06 18:06:00,73.0,-33.3,29.45,SE,135,1.0,6.0,1,0.00,,,0.00,Weather View 32 v70,2013-06-06 22:06:00,
2013-06-06 18:11:00,72.9,-33.3,29.45,SE,135,2.0,6.0,1,0.00,,,0.00,Weather View 32 v70,2013-06-06 22:11:00,
2013-06-06 18:16:00,73.1,-33.2,29.44,East,90,2.0,5.0,1,0.00,,,0.00,Weather View 32 v70,2013-06-06 22:16:00,
2013-06-06 18:21:00,73.0,-33.3,29.44,East,90,1.0,5.0,1,0.00,,,0.00,Weather View 32 v70,2013-06-06 22:21:00,
2013-06-06 18:27:00,72.9,-33.3,29.44,East,90,1.0,5.0,1,0.00,,,0.00,Weather View 32 v70,2013-06-06 22:27:00,
2013-06-06 18:32:00,72.9,-33.3,29.44,East,90,2.0,5.0,1,0.00,,,0.00,Weather View 32 v70,2013-06-06 22:32:00,
2013-06-06 18:37:00,72.9,-33.3,29.44,East,90,2.0,5.0,1,0.01,,,0.01,Weather View 32 v70,2013-06-06 22:37:00,
2013-06-06 18:42:00,72.9,-33.3,29.44,East,90,2.0,4.0,1,0.01,,,0.01,Weather View 32 v70,2013-06-06 22:42:00,
2013-06-06 18:47:00,72.8,-33.4,29.44,East,90,2.0,4.0,1,0.01,,,0.01,Weather View 32 v70,2013-06-06 22:47:00,
2013-06-06 18:52:00,72.8,-33.4,29.44,East,90,3.0,4.0,1,0.01,,,0.01,Weather View 32 v70,2013-06-06 22:52:00,
2013-06-06 18:57:00,72.8,-33.4,29.44,East,90,2.0,4.0,1,0.01,,,0.01,Weather View 32 v70,2013-06-06 22:57:00,
2013-06-06 19:02:00,72.7,-33.4,29.44,East,90,2.0,5.0,1,0.00,,,0.01,Weather View 32 v70,2013-06-06 23:02:00,
2013-06-06 19:07:00,72.6,-33.5,29.44,ENE,67,4.0,5.0,1,0.01,,,0.01,Weather View 32 v70,2013-06-06 23:07:00,
2013-06-06 19:12:00,72.5,-33.6,29.44,ENE,67,3.0,5.0,1,0.02,,,0.02,Weather View 32 v70,2013-06-06 23:12:00,
2013-06-06 19:17:00,72.5,-33.6,29.44,ENE,67,3.0,5.0,1,0.02,,,0.02,Weather View 32 v70,2013-06-06 23:17:00,
2013-06-06 19:22:00,72.5,-33.6,29.44,East,90,2.0,6.0,1,0.02,,,0.02,Weather View 32 v70,2013-06-06 23:22:00,
2013-06-06 19:27:00,72.4,-33.6,29.43,East,90,4.0,6.0,1,0.02,,,0.02,Weather View 32 v70,2013-06-06 23:27:00,
2013-06-06 19:32:00,72.4,-33.6,29.43,East,90,2.0,6.0,1,0.02,,,0.02,Weather View 32 v70,2013-06-06 23:32:00,
2013-06-06 19:37:00,72.4,-33.6,29.43,ENE,67,4.0,6.0,1,0.02,,,0.03,Weather View 32 v70,2013-06-06 23:37:00,
2013-06-06 19:43:00,72.3,-33.7,29.43,ENE,67,4.0,7.0,1,0.02,,,0.03,Weather View 32 v70,2013-06-06 23:43:00,
2013-06-06 19:48:00,72.3,-33.7,29.43,ENE,67,4.0,9.0,1,0.02,,,0.03,Weather View 32 v70,2013-06-06 23:48:00,
2013-06-06 19:53:00,72.2,-33.7,29.42,East,90,6.0,9.0,1,0.02,,,0.03,Weather View 32 v70,2013-06-06 23:53:00,
2013-06-06 19:58:00,72.2,-33.7,29.43,East,90,2.0,9.0,1,0.02,,,0.03,Weather View 32 v70,2013-06-06 23:58:00,
2013-06-06 20:03:00,72.2,-33.7,29.43,East,90,6.0,9.0,1,0.02,,,0.03,Weather View 32 v70,2013-06-07 00:03:00,
2013-06-06 20:08:00,72.2,-33.7,29.43,East,90,9.0,11.0,1,0.02,,,0.04,Weather View 32 v70,2013-06-07 00:08:00,
2013-06-06 20:13:00,71.9,-33.9,29.42,East,90,3.0,12.0,1,0.02,,,0.04,Weather View 32 v70,2013-06-07 00:13:00,
2013-06-06 20:18:00,71.8,-34.0,29.42,East,90,6.0,12.0,1,0.02,,,0.04,Weather View 32 v70,2013-06-07 00:18:00,
2013-06-06 20:23:00,71.7,-34.0,29.42,East,90,2.0,12.0,1,0.02,,,0.04,Weather View 32 v70,2013-06-07 00:23:00,
2013-06-06 20:28:00,71.6,-34.1,29.42,East,90,6.0,12.0,1,0.03,,,0.05,Weather View 32 v70,2013-06-07 00:28:00,
2013-06-06 20:33:00,71.6,-34.1,29.42,East,90,4.0,12.0,1,0.03,,,0.05,Weather View 32 v70,2013-06-07 00:33:00,
2013-06-06 20:38:00,71.6,-34.1,29.42,East,90,4.0,12.0,1,0.02,,,0.05,Weather View 32 v70,2013-06-07 00:38:00,
2013-06-06 20:43:00,71.5,-34.2,29.41,East,90,7.0,12.0,1,0.02,,,0.05,Weather View 32 v70,2013-06-07 00:43:00,
2013-06-06 20:48:00,71.6,-34.1,29.41,East,90,7.0,12.0,1,0.03,,,0.06,Weather View 32 v70,2013-06-07 00:48:00,
2013-06-06 20:53:00,71.6,-34.1,29.41,East,90,6.0,12.0,1,0.03,,,0.06,Weather View 32 v70,2013-06-07 00:53:00,
2013-06-06 20:58:00,71.5,-34.2,29.41,ENE,67,7.0,12.0,1,0.04,,,0.07,Weather View 32 v70,2013-06-07 00:58:00,
2013-06-06 21:03:00,71.4,-34.2,29.40,ENE,67,6.0,12.0,1,0.04,,,0.07,Weather View 32 v70,2013-06-07 01:03:00,
2013-06-06 21:08:00,71.4,-34.2,29.40,ENE,67,9.0,12.0,1,0.04,,,0.08,Weather View 32 v70,2013-06-07 01:08:00,
2013-06-06 21:13:00,71.4,-34.2,29.40,ENE,67,6.0,12.0,1,0.04,,,0.08,Weather View 32 v70,2013-06-07 01:13:00,
2013-06-06 21:18:00,71.4,-34.2,29.40,NE,45,6.0,12.0,1,0.04,,,0.08,Weather View 32 v70,2013-06-07 01:18:00,
2013-06-06 21:23:00,71.4,-34.2,29.40,ENE,67,7.0,12.0,1,0.05,,,0.09,Weather View 32 v70,2013-06-07 01:23:00,
2013-06-06 21:28:00,71.3,-34.3,29.40,ENE,67,8.0,12.0,1,0.04,,,0.09,Weather View 32 v70,2013-06-07 01:28:00,
2013-06-06 21:33:00,71.3,-34.3,29.40,East,90,7.0,12.0,1,0.05,,,0.10,Weather View 32 v70,2013-06-07 01:33:00,
2013-06-06 21:38:00,71.2,-34.3,29.40,East,90,7.0,12.0,1,0.06,,,0.11,Weather View 32 v70,2013-06-07 01:38:00,
2013-06-06 21:43:00,71.1,-34.4,29.40,East,90,9.0,12.0,1,0.07,,,0.12,Weather View 32 v70,2013-06-07 01:43:00,
2013-06-06 21:48:00,71.1,-34.4,29.39,East,90,9.0,14.0,1,0.07,,,0.14,Weather View 32 v70,2013-06-07 01:48:00,
2013-06-06 21:53:00,71.0,-34.5,29.39,East,90,6.0,16.0,1,0.08,,,0.15,Weather View 32 v70,2013-06-07 01:53:00,
2013-06-06 21:58:00,70.9,-34.5,29.40,East,90,6.0,16.0,1,0.09,,,0.16,Weather View 32 v70,2013-06-07 01:58:00,
2013-06-06 22:03:00,70.9,-34.5,29.40,East,90,5.0,16.0,1,0.11,,,0.18,Weather View 32 v70,2013-06-07 02:03:00,
2013-06-06 22:08:00,70.9,-34.5,29.39,East,90,12.0,16.0,1,0.11,,,0.19,Weather View 32 v70,2013-06-07 02:08:00,
2013-06-06 22:13:00,70.9,-34.5,29.39,East,90,6.0,16.0,1,0.13,,,0.21,Weather View 32 v70,2013-06-07 02:13:00,
2013-06-06 22:18:00,70.9,-34.5,29.39,ESE,112,7.0,16.0,1,0.14,,,0.22,Weather View 32 v70,2013-06-07 02:18:00,
2013-06-06 22:23:00,70.9,-34.5,29.39,East,90,4.0,16.0,1,0.15,,,0.24,Weather View 32 v70,2013-06-07 02:23:00,
2013-06-06 22:28:00,70.8,-34.6,29.39,East,90,6.0,16.0,1,0.17,,,0.26,Weather View 32 v70,2013-06-07 02:28:00,
2013-06-06 22:33:00,70.8,-34.6,29.39,ESE,112,5.0,16.0,1,0.17,,,0.28,Weather View 32 v70,2013-06-07 02:33:00,
2013-06-06 22:38:00,70.7,-34.6,29.40,East,90,6.0,16.0,1,0.18,,,0.29,Weather View 32 v70,2013-06-07 02:38:00,
2013-06-06 22:43:00,70.7,-34.6,29.39,East,90,4.0,16.0,1,0.18,,,0.31,Weather View 32 v70,2013-06-07 02:43:00,
2013-06-06 22:48:00,70.6,-34.7,29.39,East,90,10.0,16.0,1,0.19,,,0.32,Weather View 32 v70,2013-06-07 02:48:00,
2013-06-06 22:53:00,70.5,-34.8,29.38,East,90,7.0,14.0,1,0.20,,,0.34,Weather View 32 v70,2013-06-07 02:53:00,
2013-06-06 22:58:00,70.5,-34.8,29.38,East,90,7.0,14.0,1,0.19,,,0.36,Weather View 32 v70,2013-06-07 02:58:00,
2013-06-06 23:03:00,70.4,-34.8,29.37,ENE,67,14.0,16.0,1,0.19,,,0.37,Weather View 32 v70,2013-06-07 03:03:00,
2013-06-06 23:08:00,70.3,-34.9,29.37,East,90,11.0,16.0,1,0.20,,,0.39,Weather View 32 v70,2013-06-07 03:08:00,
2013-06-06 23:13:00,70.2,-34.9,29.37,East,90,6.0,16.0,1,0.19,,,0.40,Weather View 32 v70,2013-06-07 03:13:00,
2013-06-06 23:18:00,70.2,-34.9,29.36,East,90,6.0,16.0,1,0.20,,,0.42,Weather View 32 v70,2013-06-07 03:18:00,
2013-06-06 23:23:00,70.2,-34.9,29.36,East,90,6.0,16.0,1,0.19,,,0.44,Weather View 32 v70,2013-06-07 03:23:00,
2013-06-06 23:29:00,70.1,-35.0,29.36,East,90,8.0,16.0,1,0.43,,,0.45,Weather View 32 v70,2013-06-07 03:29:00,
2013-06-06 23:34:00,70.1,-35.0,29.36,East,90,5.0,16.0,1,0.19,,,0.47,Weather View 32 v70,2013-06-07 03:34:00,
2013-06-06 23:39:00,70.1,-35.0,29.36,East,90,6.0,16.0,1,0.19,,,0.48,Weather View 32 v70,2013-06-07 03:39:00,
2013-06-06 23:44:00,70.1,-35.0,29.36,East,90,6.0,16.0,1,0.18,,,0.49,Weather View 32 v70,2013-06-07 03:44:00,
2013-06-06 23:49:00,70.0,-35.1,29.35,East,90,10.0,16.0,1,0.19,,,0.51,Weather View 32 v70,2013-06-07 03:49:00,
2013-06-06 23:54:00,69.9,-35.1,29.35,ENE,67,7.0,19.0,1,0.18,,,0.52,Weather View 32 v70,2013-06-07 03:54:00,
2013-06-06 23:59:00,69.9,-35.1,29.34,ENE,67,7.0,19.0,1,0.18,,,0.54,Weather View 32 v70,2013-06-07 03:59:00,